EHI
0 0 0 0 0 0 0 0 0 0 0 1 3 3 1 0 0 0 0 0 0 0 0 0 0 0 0 0 0 0 0 0 0 0 0 0 0 0 0 0 0 0 0 0
0 0 0 0 0 0 0 0 0 0 0 2 3 2 1 0 0 0 0 0 0 0 0 0 0 0 0 0 0 0 0 0 0 0 0 0 0 0 0 0 0 0 0 0
0 0 0 0 0 0 0 0 0 0 0 1 2 1 1 0 0 0 0 0 0 0 0 0 0 0 0 0 0 0 0 0 0 0 0 0 0 0 0 0 0 0 0 0
0 0 0 0 0 0 0 0 0 1 0 0 0 0 0 0 0 0 0 0 0 0 0 0 0 0 0 0 0 0 0 0 0 0 0 0 0 0 0 0 0 0 0 0
0 0 0 0 0 0 0 0 0 0 0 0 0 0 0 0 0 0 0 0 0 0 0 0 0 0 0 0 0 0 0 0 0 0 0 0 0 0 0 0 0 0 0 0
0 0 0 0 0 0 0 0 0 0 0 0 0 0 0 0 0 0 0 0 0 0 0 0 0 0 0 0 0 0 0 0 0 0 0 0 0 0 0 0 0 0 0 0
0 0 0 0 0 0 0 0 0 0 0 0 0 0 0 0 0 0 0 0 0 0 0 0 0 0 0 0 0 0 0 0 0 0 0 0 0 0 0 0 0 0 0 0
0 0 0 0 0 0 0 0 0 0 0 0 0 0 0 0 0 0 0 0 0 0 0 0 0 0 0 0 0 0 0 0 0 0 0 0 0 0 0 0 0 0 0 0
0 0 0 0 0 0 0 0 0 0 0 0 0 0 0 0 0 0 0 0 0 0 0 0 0 0 0 0 0 0 0 0 0 0 0 0 0 0 0 0 0 0 0 0
0 0 0 0 0 0 0 0 0 0 0 0 0 0 0 0 0 0 0 0 0 0 0 0 0 0 0 0 0 0 0 0 0 0 0 0 0 0 0 0 0 0 0 0
0 0 0 0 0 0 0 0 0 0 0 0 0 0 0 0 0 0 0 0 0 0 0 0 0 0 0 0 0 0 0 0 0 0 0 0 0 0 0 0 0 0 0 0
0 0 0 0 0 0 0 0 0 0 0 0 0 0 0 0 0 0 0 0 0 0 0 0 0 0 0 0 0 0 0 0 0 0 0 0 0 0 0 0 0 0 0 0
0 0 0 0 0 0 0 0 0 0 0 0 0 0 0 0 0 0 0 0 0 0 0 0 0 0 0 0 0 0 0 0 0 0 0 0 0 0 0 0 0 0 0 0
0 0 0 0 0 0 0 0 0 0 0 0 0 0 0 0 0 0 0 0 0 0 0 0 0 0 0 0 0 0 0 0 0 0 0 0 0 0 0 0 0 0 0 0
0 0 0 0 0 0 0 0 0 0 0 0 0 0 0 0 0 0 0 0 0 0 0 0 0 0 0 0 0 0 0 0 0 0 0 0 0 0 0 0 0 0 0 0
0 0 0 0 0 0 0 0 0 0 0 0 0 0 0 0 0 0 0 0 0 0 0 0 0 0 0 0 0 0 0 0 0 0 0 0 0 0 0 0 0 0 0 0
0 0 0 0 0 0 0 0 0 0 0 0 0 0 0 0 0 0 0 0 0 0 0 0 0 0 0 0 0 0 0 0 0 0 0 0 0 0 0 0 0 0 0 0
0 0 0 0 0 0 0 0 0 0 0 0 0 0 0 0 0 0 0 0 0 0 0 0 0 0 0 0 0 0 0 0 0 0 0 0 0 0 0 0 0 0 0 0
0 0 0 0 0 0 0 0 0 0 0 0 0 0 0 0 0 0 0 0 0 0 0 0 0 0 0 0 0 0 0 0 0 0 0 0 0 0 0 0 0 0 0 0
0 0 0 0 0 0 0 0 0 0 0 0 0 0 0 0 0 0 0 0 0 0 0 0 0 0 0 0 0 0 0 0 0 0 0 0 0 0 0 0 0 0 0 0
0 0 0 0 0 0 0 0 0 0 0 0 0 0 0 0 0 0 0 0 0 0 0 0 0 0 0 0 0 0 0 0 0 0 0 0 0 0 0 0 0 0 0 0
0 0 0 0 0 0 0 0 0 0 0 0 0 0 0 0 0 0 0 0 0 0 0 0 0 0 0 0 0 0 0 0 0 0 0 0 0 0 0 0 0 0 0 0
0 0 0 0 0 0 0 0 0 0 0 0 0 0 0 0 0 0 0 0 0 0 0 0 0 0 0 0 0 0 0 0 0 0 0 0 0 0 0 0 0 0 0 0
0 0 0 0 0 0 0 0 0 0 0 0 0 0 0 0 0 0 0 0 0 0 0 0 0 0 0 0 0 0 0 0 0 0 0 0 0 0 0 0 0 0 0 0
0 0 0 0 0 0 0 0 0 0 0 0 0 0 0 0 0 0 0 0 0 0 0 0 0 0 0 0 0 0 0 0 0 0 0 0 0 0 0 0 0 0 0 0
0 0 0 0 0 0 0 0 0 0 0 0 0 0 0 0 0 0 0 0 0 0 0 0 0 0 0 0 0 0 0 0 0 0 0 0 0 0 0 0 0 0 0 0
0 0 0 0 0 0 0 0 0 0 0 0 0 0 0 0 0 0 0 0 0 0 0 0 0 0 0 0 0 0 0 0 0 0 0 0 0 0 0 0 0 0 0 0
Wind_Speed
3 3 4 5 6 6 8 8 8 7 5 1 8 11 13 14 14 13 12 11 10 9 8 8 7 7 7 7 7 7 8 9 8 8 8 8 9 9 9 9 9 9 10 10
5 4 5 5 4 5 5 6 7 6 2 7 10 11 13 14 14 13 12 11 11 10 9 9 8 7 8 7 7 7 8 8 8 8 8 8 8 9 9 9 9 10 10 10
4 3 6 4 1 3 3 3 5 5 3 9 11 12 14 14 14 14 13 13 12 11 10 9 8 7 7 7 7 7 8 7 8 8 8 8 8 9 9 8 9 9 10 10
4 5 5 4 4 4 3 3 4 4 6 8 10 10 11 12 14 14 14 13 12 11 11 9 8 8 7 7 7 7 7 7 7 7 8 8 8 9 8 8 8 8 9 9
5 5 2 5 4 4 4 3 6 5 9 11 13 11 8 9 11 13 13 12 11 11 11 10 9 8 8 8 7 8 8 7 8 8 8 8 8 8 7 7 7 7 8 9
5 5 1 6 6 5 5 2 6 5 10 12 12 7 8 11 13 13 13 12 11 11 11 10 9 8 8 8 8 8 8 8 7 7 7 8 8 7 7 6 7 7 8 8
5 4 3 7 7 5 4 5 3 4 8 10 6 4 14 15 14 14 13 13 12 12 10 9 9 8 8 8 8 8 8 8 7 7 7 7 7 6 6 6 7 7 7 8
3 2 4 9 6 6 6 3 3 5 7 8 9 14 16 16 16 15 14 14 13 11 10 9 9 9 9 8 8 7 8 8 7 6 6 7 6 6 6 6 7 6 6 6
4 5 6 6 5 4 3 2 4 6 9 11 13 15 16 16 15 15 14 13 12 11 11 9 9 8 9 8 7 7 8 7 7 6 5 5 5 6 5 4 4 4 4 5
2 4 5 5 5 4 3 3 5 8 11 12 14 16 16 15 14 14 13 13 11 12 11 10 9 8 8 8 7 7 8 7 6 6 6 5 3 3 3 4 4 4 4 4
1 3 2 4 5 5 5 7 9 10 11 13 15 16 16 15 14 13 13 12 11 11 11 11 10 9 9 8 7 7 7 6 6 6 6 5 5 6 5 7 6 5 4 4
4 4 4 3 3 4 5 7 10 11 12 13 14 16 15 14 13 13 13 12 11 11 11 11 11 10 9 8 7 7 6 6 5 5 5 5 6 6 8 6 5 5 7 6
3 4 3 3 3 4 6 8 10 11 12 13 14 14 14 13 13 13 13 12 12 11 12 11 10 10 9 8 7 6 6 5 4 5 5 4 5 5 6 5 3 2 1 2
1 1 2 2 4 5 8 9 10 11 12 13 13 14 13 13 14 14 13 12 12 12 12 11 11 10 9 8 7 6 6 5 4 4 4 4 4 3 3 4 5 5 5 4
1 2 1 3 6 8 9 11 12 12 12 13 13 14 14 14 14 13 12 12 12 12 12 11 11 10 9 8 8 6 5 5 4 4 4 4 3 3 3 3 2 3 5 7
1 1 4 6 8 9 10 12 12 13 13 14 13 14 14 14 13 13 13 12 12 12 11 11 10 10 9 8 8 6 5 4 2 3 4 3 3 2 2 2 2 2 2 3
4 5 6 8 9 10 10 10 11 12 13 14 14 14 14 14 14 13 13 12 11 11 11 10 10 10 9 9 7 6 6 7 6 4 3 2 2 1 1 1 1 1 2 4
5 5 6 7 9 10 10 11 11 13 13 14 15 15 14 14 14 13 12 12 11 11 11 11 10 10 9 8 6 4 5 6 6 3 3 2 1 1 1 1 1 1 2 5
3 5 6 8 9 10 11 11 12 13 14 14 15 15 14 13 13 13 13 12 12 12 12 11 9 9 9 7 5 5 4 5 5 4 3 3 4 3 2 2 1 1 1 1
3 5 6 8 10 11 11 12 12 13 13 14 15 15 14 13 13 13 13 12 10 9 11 11 12 10 9 8 7 6 5 5 5 5 4 4 4 3 3 2 2 2 2 2
3 5 7 8 9 11 12 13 13 13 14 15 15 15 14 13 13 13 12 10 10 10 12 11 10 9 9 7 9 7 6 6 5 5 5 4 4 3 3 3 3 3 3 3
3 5 7 8 9 10 11 12 13 14 14 14 14 14 14 14 14 13 12 8 10 10 10 11 11 8 7 8 9 7 7 6 6 5 5 4 4 4 4 3 3 3 3 4
2 4 6 8 10 10 12 12 13 13 14 14 14 14 14 13 11 11 11 9 10 12 11 10 9 11 9 9 8 7 7 7 6 6 5 5 5 5 5 5 4 4 4 4
2 4 6 7 9 11 12 12 12 11 13 13 13 14 13 11 10 10 9 11 11 12 11 9 12 13 12 10 9 8 8 8 8 7 7 7 6 6 6 6 6 6 6 7
2 4 5 8 9 9 11 12 12 12 13 11 13 14 12 10 10 10 10 12 14 13 12 12 14 14 13 11 10 10 9 8 7 7 7 7 7 7 7 7 7 7 7 7
2 3 4 6 6 6 8 9 10 10 11 11 11 11 11 10 11 10 10 12 16 14 13 11 14 14 14 13 12 11 10 9 9 10 10 9 10 9 8 8 10 9 8 8
2 3 4 5 6 7 7 8 9 10 11 11 11 11 11 11 11 11 12 11 13 14 13 12 12 14 14 14 13 12 11 11 10 10 10 10 10 10 10 11 10 9 9 9
Wind_Direction
281 283 263 260 258 247 254 278 288 303 318 70 152 153 148 146 145 144 145 144 139 132 128 123 118 112 108 105 102 101 97 92 88 85 82 79 75 73 72 72 74 74 75 72
244 240 251 254 262 258 261 280 287 293 352 84 125 136 145 151 152 152 152 148 142 136 134 131 127 120 116 111 108 104 100 96 93 90 87 83 78 76 74 72 71 73 71 71
259 253 249 223 327 310 304 323 310 315 78 129 139 150 156 158 159 156 153 150 148 145 140 133 129 127 123 117 113 108 103 99 97 94 92 90 87 82 78 76 75 75 75 75
268 255 241 75 40 346 333 28 14 51 108 134 136 140 149 158 157 152 152 151 149 145 137 135 134 130 123 119 116 109 105 102 99 97 92 90 86 83 83 82 78 77 76 77
264 255 202 109 51 354 324 57 48 84 112 118 122 121 129 149 151 150 148 145 143 140 138 139 137 131 126 122 120 117 112 107 104 102 100 97 90 87 85 86 84 82 77 78
258 272 292 66 20 344 285 124 68 110 135 143 159 163 147 149 142 138 138 140 139 140 141 142 141 140 135 130 122 115 111 109 106 105 102 98 95 93 92 92 90 88 79 74
257 264 79 36 348 300 295 39 63 134 150 162 174 92 128 140 138 137 138 140 142 142 143 142 144 143 137 128 120 115 115 114 111 108 108 106 103 101 104 100 92 89 89 84
270 272 69 19 0 19 20 22 105 136 146 140 112 114 129 136 138 139 141 144 144 142 141 143 147 145 134 122 119 120 120 117 114 113 110 109 109 108 107 112 115 108 103 99
352 30 48 28 24 22 357 68 120 136 138 133 130 133 135 137 139 143 145 145 146 145 142 145 149 144 132 126 126 123 119 117 115 110 103 107 113 118 124 125 115 114 114 103
317 71 52 48 46 39 42 80 118 134 139 140 138 139 139 140 143 145 146 147 150 149 146 146 146 140 132 130 129 128 123 120 122 118 113 102 101 99 95 95 97 102 99 100
300 52 70 72 47 50 73 100 120 130 135 139 140 143 143 143 145 146 147 149 151 150 148 145 146 142 137 134 135 130 125 125 126 118 108 104 83 52 47 59 38 29 59 72
9 20 348 41 51 77 108 120 129 133 134 140 144 143 143 144 145 147 149 151 151 150 149 147 147 142 139 142 140 137 136 137 132 127 124 125 123 111 59 57 68 52 29 19
346 356 21 82 92 100 120 128 134 137 137 139 141 142 143 143 145 147 150 153 151 150 148 148 147 144 145 145 141 136 129 126 130 130 133 131 132 132 130 124 120 116 85 28
36 110 127 117 110 120 126 128 130 130 133 137 140 142 143 144 146 149 153 152 150 149 148 150 149 147 148 148 145 138 133 129 143 132 126 124 124 130 133 137 147 150 166 191
238 272 155 123 128 131 134 136 136 135 137 140 144 147 149 149 150 150 150 149 150 151 153 154 151 150 155 154 151 151 152 143 135 124 138 134 137 140 129 122 118 123 138 156
279 157 154 153 147 148 151 152 148 146 147 148 151 152 152 150 149 149 152 155 159 158 156 157 155 154 159 157 159 159 140 104 167 164 150 147 150 144 129 131 134 121 119 120
210 189 174 166 162 164 163 162 155 153 153 155 153 151 151 150 151 153 157 161 162 157 159 161 158 159 162 164 177 169 154 151 190 210 168 151 143 130 126 143 128 129 108 83
229 208 193 180 172 168 165 162 159 158 158 156 153 155 157 159 159 159 161 161 162 162 165 166 164 167 168 169 179 178 168 169 184 183 159 162 164 184 184 175 156 155 145 150
196 190 186 181 177 170 165 163 162 161 159 158 159 162 164 163 160 161 164 167 169 170 170 167 163 183 175 168 189 193 191 179 180 182 184 165 216 215 205 208 200 202 210 189
170 174 174 173 172 168 165 162 161 161 162 163 163 165 167 166 165 168 172 176 180 172 167 167 178 188 183 179 218 207 189 192 191 187 199 205 207 208 214 223 229 232 243 247
166 168 168 167 168 168 166 164 164 165 166 169 170 171 169 169 172 174 180 180 176 173 169 169 190 190 191 180 208 215 195 199 202 199 204 208 208 218 228 234 239 244 247 250
171 172 172 168 167 167 166 167 169 169 170 174 176 174 173 175 178 182 191 185 170 169 181 184 194 187 178 193 207 208 203 205 211 209 207 213 221 229 233 242 248 248 247 247
173 173 174 171 170 167 167 172 174 174 177 180 181 181 181 182 184 186 187 184 177 177 197 192 171 156 174 212 218 213 210 214 218 218 215 218 229 237 242 245 251 255 256 255
186 178 178 174 170 169 173 177 177 179 182 185 185 185 186 186 190 197 191 176 174 174 201 172 156 168 197 221 221 219 216 217 221 225 227 226 229 236 242 248 253 254 254 256
195 182 178 178 179 180 177 177 177 182 187 189 188 188 193 197 194 193 190 179 173 183 201 176 173 185 208 223 223 223 223 224 229 237 235 239 242 242 243 247 252 256 258 258
198 198 190 197 194 186 179 180 183 185 189 190 190 190 194 196 197 193 193 192 188 195 210 195 188 197 217 224 225 226 228 222 219 230 239 243 246 250 252 253 256 257 258 258
196 190 189 198 197 197 193 191 192 192 193 195 193 191 193 195 196 196 197 198 192 196 209 211 204 203 212 220 224 225 227 231 232 235 237 239 243 246 248 249 251 254 256 257